This demonstration page uses our WeatherBlox Daily Observations layout. Learn more.

Left ArrowRight Arrow

53.62937, 11.41316

Hourly Observations for July 19, 2022

Temp ( °F °C ) Dew Point ( °F °C ) Humidity (%) Winds ( mph kmh ) Pressure ( in mb ) Visibility ( mi km ) Precip ( " mm )
12:20 am 00:20 Mostly Clear 61 16 55 13 83 83 VRB 2 4 30.12 1020 30 48 N/A
12:50 am 00:50 Mostly Clear 59 15 55 13 88 88 Calm 30.12 1020 30 48 N/A
1:20 am 01:20 Mostly Clear 57 14 54 12 88 88 Calm 30.12 1020 30 48 N/A
1:50 am 01:50 Mostly Clear 57 14 55 13 94 94 E 1 2 30.12 1020 30 48 N/A
2:20 am 02:20 Mostly Clear 57 14 55 13 94 94 Calm 30.12 1020 30 48 N/A
2:50 am 02:50 Mostly Clear 55 13 54 12 94 94 W 2 4 30.12 1020 30 48 N/A
3:20 am 03:20 Mostly Clear 54 12 54 12 100 100 Calm 30.12 1020 30 48 N/A
3:50 am 03:50 Mostly Clear 55 13 54 12 94 94 Calm 30.12 1020 0 1 N/A
4:20 am 04:20 Partly Cloudy 55 13 54 12 94 94 Calm 30.12 1020 3 5 N/A
4:50 am 04:50 Partly Cloudy 54 12 52 11 94 94 Calm 30.12 1020 0 1 N/A
5:20 am 05:20 Partly Cloudy 54 12 52 11 94 94 S 1 2 30.12 1020 1 1 N/A
5:50 am 05:50 Mostly Sunny 54 12 52 11 94 94 Calm 30.12 1020 30 48 N/A
6:20 am 06:20 Partly Cloudy with Patchy Fog 55 13 55 13 100 100 Calm 30.12 1020 30 48 N/A
6:50 am 06:50 Mostly Sunny 57 14 55 13 94 94 W 1 2 30.12 1020 7 11 N/A
7:20 am 07:20 Mostly Sunny 63 17 59 15 88 88 Calm 30.12 1020 7 11 N/A
7:50 am 07:50 Mostly Sunny 66 19 59 15 78 78 Calm 30.12 1020 7 11 N/A
8:20 am 08:20 Mostly Sunny 70 21 59 15 69 69 Calm 30.12 1020 7 11 N/A
8:50 am 08:50 Mostly Sunny 73 23 59 15 61 61 VRB 2 4 30.12 1020 7 11 N/A
9:20 am 09:20 Mostly Sunny 77 25 59 15 54 54 VRB 1 2 30.12 1020 7 11 N/A
9:50 am 09:50 Mostly Sunny 79 26 57 14 48 48 VRB 2 4 30.12 1020 7 11 N/A
10:20 am 10:20 Mostly Sunny 81 27 54 12 39 39 VRB 3 6 30.12 1020 7 11 N/A
10:50 am 10:50 Mostly Sunny 82 28 54 12 37 37 VRB 3 6 30.12 1020 7 11 N/A
11:20 am 11:20 Mostly Sunny 82 28 54 12 37 37 VRB 3 6 30.09 1019 7 11 N/A
11:50 am 11:50 Mostly Sunny 84 29 52 11 33 33 SSE 6 9 30.09 1019 7 11 N/A
12:20 pm 12:20 Mostly Sunny 86 30 54 12 33 33 ENE 5 7 30.09 1019 7 11 N/A
12:50 pm 12:50 Mostly Sunny 86 30 50 10 29 29 VRB 5 7 30.09 1019 7 11 N/A
1:20 pm 13:20 Mostly Sunny 88 31 52 11 29 29 S 3 6 30.09 1019 7 11 N/A
1:50 pm 13:50 Mostly Sunny 90 32 52 11 27 27 ESE 3 6 30.09 1019 7 11 N/A
2:20 pm 14:20 Mostly Sunny 88 31 50 10 27 27 ESE 6 9 30.09 1019 7 11 N/A
2:50 pm 14:50 Mostly Sunny 90 32 48 9 24 24 E 6 9 30.09 1019 7 11 N/A
3:20 pm 15:20 Mostly Sunny 91 33 48 9 23 23 VRB 3 6 30.09 1019 7 11 N/A
3:50 pm 15:50 Mostly Sunny 91 33 46 8 21 21 SE 5 7 30.09 1019 7 11 N/A
4:20 pm 16:20 Mostly Sunny 93 34 50 10 23 23 S 6 9 30.06 1018 7 11 N/A
4:50 pm 16:50 Mostly Sunny 91 33 52 11 26 26 VRB 5 7 30.06 1018 7 11 N/A
5:20 pm 17:20 Mostly Sunny 91 33 54 12 28 28 NE 7 11 30.06 1018 7 11 N/A
5:50 pm 17:50 Mostly Sunny 90 32 54 12 29 29 NE 9 15 30.06 1018 7 11 N/A
6:20 pm 18:20 Mostly Sunny 90 32 54 12 29 29 ENE 8 13 30.06 1018 7 11 N/A
6:50 pm 18:50 Mostly Sunny 88 31 55 13 33 33 ENE 9 15 30.03 1017 7 11 N/A
7:20 pm 19:20 Mostly Sunny 86 30 52 11 31 31 E 10 17 30.03 1017 7 11 N/A
7:50 pm 19:50 Mostly Sunny 84 29 52 11 33 33 E 8 13 30.03 1017 7 11 N/A
8:20 pm 20:20 Mostly Sunny 82 28 50 10 32 32 E 8 13 30.03 1017 7 11 N/A
8:50 pm 20:50 Mostly Sunny 77 25 50 10 39 39 E 7 11 30.03 1017 7 11 N/A
9:20 pm 21:20 Mostly Sunny 75 24 50 10 41 41 E 5 7 30.03 1017 30 48 N/A
9:50 pm 21:50 Mostly Clear 75 24 50 10 41 41 E 5 7 30.06 1018 30 48 N/A
10:20 pm 22:20 Mostly Clear 72 22 50 10 47 47 ESE 3 6 30.03 1017 30 48 N/A
10:50 pm 22:50 Mostly Clear 72 22 52 11 50 50 ESE 5 7 30.06 1018 30 48 N/A
11:20 pm 23:20 Mostly Clear 70 21 52 11 53 53 E 3 6 30.06 1018 30 48 N/A
11:50 pm 23:50 Mostly Clear 70 21 54 12 57 57 E 6 9 30.06 1018 30 48 N/A

Powered by AerisWeather